Gillette, WY

7:44 AM MDT on July 28, 2017 (GMT -0600)
Gillette-Campbell County

Weather History for KGCC - September, 2014

Change the Weather History Date:

Friday, September 12, 2014

  Actual Average Record
Temperature  
Mean Temperature 43 °F 60 °F  
Max Temperature 57 °F 76 °F 96 °F (1959)
Min Temperature 29 °F 45 °F 23 °F (1949)
Degree Days  
Heating Degree Days 22 6  
Month to date heating degree days 125 57  
Since 1 July heating degree days 174 114  
Cooling Degree Days 0 2  
Month to date cooling degree days 12 30  
Year to date cooling degree days 367 490  
Moisture  
Dew Point 30 °F    
Average Humidity 67    
Maximum Humidity 92    
Minimum Humidity 41    
Precipitation  
Precipitation 0.00 in 0.03 in 0.50 in (1961)
Month to date precipitation 0.62 0.43  
Year to date precipitation 15.88 10.91  
Sea Level Pressure  
Sea Level Pressure 30.39 in    
Wind  
Wind Speed 14 mph (South)    
Max Wind Speed 22 mph    
Max Gust Speed 32 mph    
Visibility 10 miles    
Events      
T = Trace of Precipitation, MM = Missing Value Source: NWS Daily Summary

Daily Weather History Graph

Daily Weather History Graph

Search for Another Location

Airport or City:

Trip Planner

Search our weather history database for the weather conditions in past years. The results will help you decide how hot, cold, wet, or windy it might be!

Date:

Astronomy

Sep. 12, 2014 Rise Set
Actual Time 6:37 AM MDT 7:18 PM MDT
Civil Twilight 6:08 AM MDT 7:47 PM MDT
Nautical Twilight 5:33 AM MDT 8:22 PM MDT
Astronomical Twilight 4:57 AM MDT 8:58 PM MDT
Moon 9:29 PM MDT (9/12) 10:54 AM MDT (9/12)
Length of Visible Light 13h 38m
Length of Day
12h 40m
Waning Gibbous, 82% of the Moon is Illuminated
Sep 12
Waning Gibbous
Sep 15
Last Quarter
Sep 24
New
Oct 1
First Quarter
Oct 8
Full

Hourly Weather History & Observations

Time (MDT) Temp. Windchill Dew Point Humidity Pressure Visibility Wind Dir Wind Speed Gust Speed Precip Events Conditions
12:19 AM 32.0 °F 28.7 °F 30.9 °F 96% 30.51 in 10.0 mi SSW 3.5 mph - N/A   Overcast
12:53 AM 32.0 °F - 30.0 °F 92% 30.59 in 10.0 mi Calm Calm - N/A   Overcast
1:04 AM 32.0 °F 27.5 °F 28.9 °F 88% 30.50 in 10.0 mi SW 4.6 mph - N/A   Overcast
1:41 AM 30.9 °F 27.5 °F 28.9 °F 92% 30.50 in 10.0 mi SSW 3.5 mph - N/A   Overcast
1:53 AM 32.0 °F 27.5 °F 28.9 °F 88% 30.58 in 10.0 mi SSW 4.6 mph - N/A   Overcast
2:53 AM 30.2 °F 20.8 °F 28.4 °F 93% 30.49 in 10.0 mi South 11.5 mph - N/A   Overcast
3:53 AM 30.0 °F 20.5 °F 28.0 °F 92% 30.56 in 10.0 mi South 11.5 mph - N/A   Overcast
4:04 AM 30.0 °F 21.1 °F 28.0 °F 92% 30.47 in 10.0 mi SSW 10.4 mph - N/A   Overcast
4:42 AM 30.2 °F 19.8 °F 26.6 °F 86% 30.46 in 10.0 mi South 13.8 mph - N/A   Scattered Clouds
4:53 AM 30.0 °F 21.7 °F 27.0 °F 88% 30.55 in 10.0 mi South 9.2 mph - N/A   Partly Cloudy
5:13 AM 28.9 °F 17.7 °F 27.0 °F 92% 30.45 in 10.0 mi South 15.0 mph - N/A   Mostly Cloudy
5:36 AM 30.0 °F 18.7 °F 27.0 °F 88% 30.45 in 10.0 mi South 16.1 mph - N/A   Mostly Cloudy
5:53 AM 28.9 °F 16.5 °F 27.0 °F 92% 30.55 in 10.0 mi South 18.4 mph - N/A   Mostly Cloudy
6:05 AM 30.0 °F 17.9 °F 26.1 °F 85% 30.45 in 10.0 mi South 18.4 mph - N/A   Partly Cloudy
6:35 AM 30.0 °F 20.0 °F 27.0 °F 88% 30.44 in 10.0 mi South 12.7 mph - N/A   Mostly Cloudy
6:53 AM 30.0 °F 18.3 °F 27.0 °F 88% 30.54 in 10.0 mi South 17.3 mph - N/A   Mostly Cloudy
7:04 AM 30.0 °F 20.0 °F 27.0 °F 88% 30.44 in 10.0 mi South 12.7 mph - N/A   Partly Cloudy
7:53 AM 30.9 °F 19.4 °F 27.0 °F 85% 30.52 in 10.0 mi South 17.3 mph - N/A   Clear
8:53 AM 32.0 °F 20.8 °F 28.0 °F 85% 30.52 in 10.0 mi South 17.3 mph - N/A   Clear
9:53 AM 34.0 °F 23.8 °F 28.9 °F 82% 30.49 in 10.0 mi SSE 16.1 mph - N/A   Clear
10:53 AM 37.9 °F 28.9 °F 30.9 °F 76% 30.46 in 10.0 mi SSE 16.1 mph - N/A   Clear
11:53 AM 42.1 °F 34.5 °F 33.1 °F 70% 30.43 in 10.0 mi South 15.0 mph - N/A   Clear
12:53 PM 46.9 °F - 35.1 °F 63% 30.37 in 10.0 mi South 20.7 mph 26.5 mph N/A   Clear
1:53 PM 51.1 °F - 32.0 °F 48% 30.32 in 10.0 mi South 15.0 mph 27.6 mph N/A   Clear
2:53 PM 54.0 °F - 30.0 °F 40% 30.28 in 10.0 mi South 16.1 mph - N/A   Clear
3:53 PM 55.9 °F - 32.0 °F 40% 30.24 in 10.0 mi SSE 15.0 mph 26.5 mph N/A   Clear
4:53 PM 55.9 °F - 33.1 °F 42% 30.23 in 10.0 mi SSE 16.1 mph - N/A   Clear
5:53 PM 55.9 °F - 33.1 °F 42% 30.20 in 10.0 mi SSE 16.1 mph - N/A   Clear
6:53 PM 52.0 °F - 34.0 °F 50% 30.19 in 10.0 mi SSE 15.0 mph - N/A   Clear
7:53 PM 46.9 °F - 32.0 °F 56% 30.18 in 10.0 mi SSE 10.4 mph - N/A   Clear
8:53 PM 46.4 °F 40.4 °F 30.2 °F 53% 30.13 in 10.0 mi SSE 13.8 mph - N/A   Clear
9:07 PM 46.0 °F 39.6 °F 30.9 °F 56% 30.13 in 10.0 mi South 15.0 mph - N/A   Partly Cloudy
9:53 PM 43.0 °F 36.4 °F 32.0 °F 65% 30.14 in 10.0 mi South 12.7 mph - N/A   Clear
10:53 PM 42.1 °F 35.7 °F 32.0 °F 67% 30.12 in 10.0 mi SSE 11.5 mph - N/A   Clear
11:53 PM 42.1 °F 36.1 °F 33.1 °F 70% 30.07 in 10.0 mi South 10.4 mph - N/A   Clear